Location: Ikejouine
(32.5142°N, 5.4699°W)
Time: 22:19:11
(UTC+00:00)

Cosmos 1992 Rocket - Pass Details

Date: 09 April 2020
Orbit: 759 x 765 km, 74.0° (Epoch: 02 June)

Event Time Altitude Azimuth Distance (km) Brightness Sun altitude
Rises 19:04:53 0° 347° (NNW) 3,221 7.6 -4.4°
Reaches altitude 10° 19:07:17 10° 350° (N) 2,292 6.8 -4.9°
Maximum altitude 19:12:27 65° 72° (ENE) 835 4.0 -5.9°
Drops below altitude 10° 19:17:34 10° 154° (SSE) 2,281 6.1 -7.0°
Sets 19:19:57 0° 157° (SSE) 3,203 6.9 -7.5°
